STARLINK-32364, 61622

Orbit data source: Space-Track

STARLINK-32364, 61622 is a payload satellite owned by SpaceX/Seattle (US) in LEO that was launched on Wed, 23 Oct 2024 UTC via an FALCON 9 launch vehicle from the Air Force Eastern Test Range (AFETR). Payload-class satellites include a variety of spacecraft equipped with specific instruments for various scientific and technological missions. These include communications satellites like Starlink; space stations such as the ISS; scientific satellites like the Hubble; Earth observation satellites from companies like Planet Labs, Umbra, and HawkEye 360; GPS; miniature CubeSats for education and research; and military/defense satellites.

Loading next visibility...
Identifier
61622, 2024-191B
Orbit
LEO
Last TLE update
8 hours ago
Origin
Manufacturer
SpaceX/Seattle
Mission
Operational Commercial Communications
Bus & Motor
STARLINK V2M, Unknown motor
Mass
730 kg wet, ~700 kg dry
Launch date (UTC)
2024-10-23 (8 months ago)
Launch vehicle
FALCON 9
Launch site
Air Force Eastern Test Range (AFETR)
Object type
Payload
Rocket body
Debris
Shape & HBR
Box + 2 Pan, 29 m
Radar Cross Section
36.964 m², Large (>1 m²)

Expand to show TLE details & history

TLE from 8 hours ago
0 STARLINK-32364
1 61622U 24191B   25181.92435399 -.00000209  00000-0  19079-5 0  9998
2 61622  42.9994 136.2141 0000991 274.7704  85.3034 15.27575607 39037
Epoch: 2025-06-30T22:11Z
TLE epoch observation values (Epoch: 2025-06-30T22:11:04.184Z)
Latitude
-0.00006°
Longitude
-115.78058°
Altitude
482.782 km
Speed
7.626 km/s
True Right ascension
09h 04m 51s
True Declination
0° 00' 00"
Sunlit
Object was in daylight at epoch
Visualization orbit readout
Latitude
-30.61718°
Longitude
-156.71277°
Altitude
490.764 km
Speed
7.62 km/s
Apparent Right ascension
05h 56m 36s
Apparent Declination
-35° 06' 26"
Sunlit
Object is in daylight
Visualization observer readout
Local Sidereal Time
17:26:58
Azimuth
306.984° NW
Elevation
-82.411°
Doppler factor
1
Orbital elements
Apogee altitude
485.688 km
Perigee altitude
484.327 km
Semi-major axis
6,863.145 km
Eccentricity
0.0001
Inclination
42.9994°
RAAN
136.2141°
Arg. of periapsis
274.7704°
True anomaly
Unknown
Mean anomaly
85.3034°
Eccentric anomaly
Unknown
Mean motion
3.81732 °/min
Orbital period
94.31 mins
BSTAR
0.0000019079
Loading maneuver chart data...
Loading SW <> Apogee altitude chart data...
Loading historical data...
Loading historical data...
Loading historical data...
Loading historical data...
Loading historical data...
Loading historical data...
Loading historical data...

STARLINK-32364 Visibility forecast

Observer location: undefined°, undefined°

Span
Click to sort rows by Start time (UTC) header in descending order
Start Az.
Max El. time (UTC)
Max El. Az.
Max El.
End time (UTC)
End Az.
5 mins2025-07-01 06:32:16.900Z263.07° W2025-07-01 06:34:16.900Z223.046° SW23.848°2025-07-01 06:37:16.900Z159.201° S
6 mins2025-07-02 01:07:16.900Z249.518° W2025-07-02 01:10:16.900Z77.331° E43.226°2025-07-02 01:13:16.900Z72.21° E
5 mins2025-07-02 02:47:16.900Z294.678° NW2025-07-02 02:49:16.900Z15.888° NNE37.528°2025-07-02 02:52:16.900Z74.598° E
5 mins2025-07-02 04:26:16.900Z291.904° WNW2025-07-02 04:28:16.900Z42.945° NE44.468°2025-07-02 04:31:16.900Z103.48° ESE
|